This is the latest recevied weather packets stored in our database for station/object K8MUD. If no packets are shown the sender has not sent any weather packets the latest 10 day(s).
| Time | Temp. | Humidity | Pressure | Rain* | Wind** | Luminosity | Snow |
|---|---|---|---|---|---|---|---|
| 1778255342 | 12.22° C | 73% | 1011.2 hPa | 0 mm | - | - | - |
| 1778255042 | 11.67° C | 74% | 1011.2 hPa | 0 mm | - | - | - |
| 1778254742 | 11.67° C | 72% | 1011.2 hPa | 0 mm | - | - | - |
| 1778254442 | 11.67° C | 73% | 1011.2 hPa | 0 mm | - | - | - |
| 1778254142 | 11.67° C | 75% | 1011.2 hPa | 0 mm | - | - | - |
| 1778253842 | 11.67° C | 74% | 1011.3 hPa | 0 mm | - | - | - |
| 1778253542 | 11.11° C | 75% | 1011.4 hPa | 0 mm | - | - | - |
| 1778253241 | 11.11° C | 74% | 1011.3 hPa | 0 mm | - | - | - |
| 1778252941 | 11.11° C | 77% | 1011.4 hPa | 0 mm | - | - | - |
| 1778252641 | 11.11° C | 76% | 1011.3 hPa | 0 mm | - | - | - |
| 1778252341 | 11.11° C | 78% | 1011.4 hPa | 0 mm | - | - | - |
| 1778252041 | 10.56° C | 77% | 1011.4 hPa | 0 mm | - | - | - |
| 1778251741 | 10.56° C | 77% | 1011.6 hPa | 0 mm | - | - | - |
| 1778251441 | 11.11° C | 76% | 1011.6 hPa | 0 mm | - | - | - |
| 1778251141 | 10.56° C | 77% | 1011.6 hPa | 0 mm | - | - | - |
| 1778250841 | 10.56° C | 77% | 1011.6 hPa | 0 mm | - | - | - |
| 1778250541 | 10.56° C | 76% | 1011.6 hPa | 0 mm | - | - | - |
| 1778250241 | 10.56° C | 76% | 1011.7 hPa | 0 mm | - | - | - |
| 1778249941 | 10° C | 77% | 1011.8 hPa | 0 mm | - | - | - |
| 1778249641 | 10° C | 75% | 1011.8 hPa | 0 mm | - | - | - |
| 1778249341 | 10° C | 73% | 1011.8 hPa | 0 mm | - | - | - |
| 1778249041 | 10.56° C | 73% | 1011.8 hPa | 0 mm | - | - | - |
| 1778248740 | 10.56° C | 75% | 1011.9 hPa | 0 mm | - | - | - |
| 1778248440 | 10.56° C | 74% | 1011.9 hPa | 0 mm | - | - | - |
| 1778248140 | 10° C | 75% | 1011.9 hPa | 0 mm | - | - | - |
* Rain latest hour (hover to see other rain measurements)
** Current wind speed in m/s (hover to see current wind gust speed)